SCD 1 1 22490U 93009B 21017.60293910 .00000206 00000-0 63713-5 0 9992 2 22490 24.9685 153.3038 0043106 129.0422 326.1877 14.44596051474952 TECHSAT 1B 1 25397U 98043D 21017.58724237 -.00000005 00000-0 17229-4 0 9990 2 25397 98.7545 323.6983 0001897 127.3435 232.7916 14.23699398170024 SCD 2 1 25504U 98060A 21017.62517361 .00000214 00000-0 93524-5 0 9996 2 25504 24.9972 4.5801 0017406 144.1332 178.9729 14.44112278174273 LANDSAT 7 1 25682U 99020A 21017.78963791 .00000037 00000-0 17916-4 0 9992 2 25682 98.0552 79.8231 0000969 87.1544 272.9762 14.57187757157456 TUBSAT 1 25757U 99029B 21017.76290944 .00000003 00000-0 12382-4 0 9990 2 25757 98.4421 311.9189 0013271 252.3882 107.5863 14.51433746146573 QUIKSCAT 1 25789U 99034A 21017.84633267 .00000021 00000-0 17793-4 0 9990 2 25789 98.5432 235.2931 0098719 195.1723 164.6504 14.49429652126024 TERRA 1 25994U 99068A 21017.84342137 .00000062 00000-0 23812-4 0 9992 2 25994 98.1930 94.9138 0001315 98.9864 326.2178 14.57120700121537 MAROC TUBSAT 1 27004U 01056D 21017.62092969 -.00000031 00000-0 15037-4 0 9994 2 27004 99.5452 155.1151 0019857 180.5342 191.1406 13.70144229955500 AQUA 1 27424U 02022A 21017.86334757 .00000083 00000-0 28526-4 0 9997 2 27424 98.2151 321.3548 0002408 61.6230 4.4877 14.57116530995146 IRS P6 1 28051U 03046A 21017.81795129 -.00000440 00000-0 -13904-3 0 9992 2 28051 98.4639 96.2415 0059400 110.1865 250.5760 14.34162700897113 TANSUO 1 1 28220U 04012A 21017.47350645 .00000836 00000-0 71745-4 0 9991 2 28220 97.8725 354.7109 0014707 271.7972 88.1567 15.00214489912682 ROCSAT 2 1 28254U 04018A 21017.84460531 -.00000170 00000-0 -86052-4 0 9991 2 28254 98.7004 47.3508 0003075 108.1609 65.2016 14.00726758852070 AURA 1 28376U 04026A 21017.58168519 .00000093 00000-0 30605-4 0 9992 2 28376 98.2156 323.2380 0001202 71.4651 288.6678 14.57109350878103 CARTOSAT-1 1 28649U 05017A 21017.28930685 .00000071 00000-0 14866-4 0 9991 2 28649 97.7888 87.3348 0002803 98.9932 261.1599 14.83750255850190 SINAH 1 1 28893U 05043D 21017.82830140 .00000018 00000-0 13000-4 0 9996 2 28893 98.0480 148.1818 0015030 355.0216 5.0834 14.61554696811897 EROS B 1 29079U 06014A 21017.74942735 .00001710 00000-0 76457-4 0 9992 2 29079 97.3903 140.3615 0006423 294.6530 203.0981 15.22653164817851 RESURS DK-1 1 29228U 06021A 21017.30790995 .00000079 00000-0 13230-4 0 9994 2 29228 69.9362 3.5538 0003233 178.6158 181.5012 15.02629911804849 KOMPSAT 2 1 29268U 06031A 21017.83848783 .00000133 00000-0 35303-4 0 9992 2 29268 97.9612 262.6806 0016920 193.1392 166.9369 14.62330447772548 LAPAN-TUBSAT 1 29709U 07001A 21017.83727098 .00000011 00000-0 79739-5 0 9992 2 29709 97.8919 340.0898 0013819 129.4747 230.7694 14.82257534758125 CARTOSAT 2AT 1 29710U 07001B 21017.45993639 .00001350 00000-0 48467-4 0 9998 2 29710 97.8901 92.9481 0167265 49.9394 311.6372 15.18505273757709 HAIYANG 1B 1 31113U 07010A 21017.83182101 -.00000026 00000-0 61344-5 0 9994 2 31113 98.3777 58.7546 0012778 301.0565 58.9364 14.30259273718807 SKYMED 1 1 31598U 07023A 21017.82372612 .00000298 00000-0 44010-4 0 9992 2 31598 97.8826 203.8687 0001449 92.2930 267.8447 14.82158070736588 TERRA SAR X 1 31698U 07026A 21017.78001490 -.00000999 00000-0 -44414-4 0 9992 2 31698 97.4440 27.7342 0002098 78.3398 95.1777 15.19145027753836 WORLDVIEW 1 1 32060U 07041A 21017.61133085 .00000859 00000-0 37686-4 0 9997 2 32060 97.3674 139.8809 0000876 84.9604 275.1733 15.24588339741805 YAOGAN 3 1 32289U 07055A 21017.80955619 .00000049 00000-0 13163-4 0 9996 2 32289 97.9822 37.8465 0001718 87.0580 273.0838 14.81059579712719 SKYMED 2 1 32376U 07059A 21017.78994995 -.00000290 00000-0 -29940-4 0 9994 2 32376 97.8827 203.8372 0001338 87.2061 272.9314 14.82156328709327 RADARSAT 2 1 32382U 07061A 21017.77807870 .00000214 00000-0 10000-3 0 9998 2 32382 98.5768 27.2192 0001144 107.4268 234.1928 14.29969076683597 CARTOSAT 2A 1 32783U 08021A 21017.84693307 -.00000177 00000-0 -17126-4 0 9993 2 32783 97.8950 80.1469 0013418 41.1754 319.0454 14.78703143686824 JASON 2 1 33105U 08032A 21017.84597439 -.00000055 00000-0 29008-4 0 9999 2 33105 66.0382 246.4415 0007897 273.0535 163.6706 12.87630892589334 RAPIDEYE 2 1 33312U 08040A 21017.77777561 .00000176 00000-0 20655-4 0 9998 2 33312 97.6670 84.6974 0012507 31.7430 328.4543 14.96169316669905 RAPIDEYE 5 1 33313U 08040B 21017.45270128 .00000470 00000-0 48753-4 0 9997 2 33313 97.6643 82.5437 0013329 260.3800 99.5915 14.94457410669677 RAPIDEYE 1 1 33314U 08040C 21017.56744162 -.00000144 00000-0 -78073-5 0 9993 2 33314 97.6867 84.7516 0027082 26.0651 334.1926 14.94900455669739 RAPIDEYE 3 1 33315U 08040D 21017.46447184 .00000712 00000-0 66196-4 0 9998 2 33315 97.6700 83.9390 0003277 8.1643 351.9631 14.97414099669770 RAPIDEYE 4 1 33316U 08040E 21017.45975875 .00000542 00000-0 53963-4 0 9990 2 33316 97.6744 83.3316 0005651 287.9625 72.0980 14.95550074669709 HJ-1A 1 33320U 08041A 21017.80669674 .00000259 00000-0 43464-4 0 9992 2 33320 97.7589 68.0134 0025841 90.8769 269.5392 14.77106280666245 HJ-1B 1 33321U 08041B 21017.84380708 .00000147 00000-0 27502-4 0 9996 2 33321 97.7674 70.6244 0036069 122.8231 237.6453 14.77314916666258 GEOEYE 1 1 33331U 08042A 21017.82345895 .00000051 00000-0 18622-4 0 9991 2 33331 98.1154 94.9762 0010209 100.1071 260.1264 14.64312169660901 THEOS 1 33396U 08049A 21017.87087455 .00000083 00000-0 59445-4 0 9992 2 33396 98.7113 87.9567 0000868 91.6947 321.4498 14.20028225637491 SKYMED 3 1 33412U 08054A 21017.77306862 -.00000047 00000-0 58359-6 0 9998 2 33412 97.8825 203.8194 0001453 99.1466 260.9909 14.82159669661783 YAOGAN 4 1 33446U 08061A 21017.82136514 .00000066 00000-0 16292-4 0 9992 2 33446 97.7573 330.7105 0016453 10.0609 350.0928 14.77077562653472 GOSAT (IBUKI) 1 33492U 09002A 21017.54842343 .00000074 00000-0 21436-4 0 9997 2 33492 98.0759 131.3490 0001594 100.8708 259.2676 14.67544355641557 YAOGAN 6 1 34839U 09021A 21017.73863258 .00000667 00000-0 27333-4 0 9993 2 34839 97.0418 20.0129 0027034 341.0076 19.0153 15.27236429652507 DEIMOS 1 1 35681U 09041A 21017.77453940 .00000072 00000-0 18960-4 0 9994 2 35681 97.7796 248.3735 0002968 88.3067 271.8477 14.71868472615915 DUBAISAT 1 1 35682U 09041B 21017.72731274 .00000084 00000-0 22165-4 0 9994 2 35682 97.7399 191.0728 0010250 284.1814 75.8240 14.68847120614574 OCEANSAT 2 1 35931U 09051A 21017.86033670 .00000070 00000-0 28953-4 0 9998 2 35931 98.2964 116.0443 0002739 103.7093 256.4407 14.50859637599508 WORLDVIEW 2 1 35946U 09055A 21017.83778311 .00000015 00000-0 19622-4 0 9995 2 35946 98.5029 94.2130 0002545 92.4155 267.7308 14.37707052591827 SMOS 1 36036U 09059A 21017.78575909 .00000056 00000-0 31896-4 0 9994 2 36036 98.4404 207.7304 0001117 93.2210 266.9106 14.39771908589202 YAOGAN 7 1 36110U 09069A 21017.81661615 .00000059 00000-0 16710-4 0 9993 2 36110 98.2470 223.9679 0023161 248.9045 110.9694 14.75451214598103 TANDEM X 1 36605U 10030A 21017.03494506 -.00000991 00000-0 -44019-4 0 9999 2 36605 97.4449 27.0013 0001752 91.3631 330.0064 15.19145197586468 CARTOSAT 2B 1 36795U 10035A 21017.74763768 -.00001427 00000-0 -18748-3 0 9995 2 36795 97.8915 79.4976 0015324 109.0735 251.2130 14.78666074567857 YAOGAN 10 1 36834U 10038A 21017.79769072 .00000053 00000-0 13652-4 0 9993 2 36834 97.9791 25.9776 0001594 77.2499 282.8892 14.81017050564451 SKYMED 4 1 37216U 10060A 21017.80261941 .00000001 00000-0 66766-5 0 9995 2 37216 97.8824 203.8467 0001442 80.8162 279.3216 14.82153646551871 HAIYANG 2A 1 37781U 11043A 21017.83386545 -.00000038 00000-0 54002-5 0 9996 2 37781 99.3168 27.7064 0001457 112.6889 247.4417 13.78725529474588 RASAT 1 37791U 11044D 21017.79810765 .00000032 00000-0 15104-4 0 9991 2 37791 98.1076 113.6162 0021065 317.8796 42.0787 14.64806685503627 MEGHA-TROPIQUES 1 37838U 11058A 21017.55378324 .00000293 00000-0 16702-4 0 9996 2 37838 19.9764 160.0526 0009075 32.1422 327.9535 14.09738758410980 SRMSAT 1 37841U 11058D 21017.62909972 .00000301 00000-0 20363-4 0 9995 2 37841 19.9713 132.6534 0011998 76.5937 45.2069 14.10683238478409 YAOGAN 13 1 37941U 11072A 21017.75215978 .00000704 00000-0 37310-4 0 9999 2 37941 97.5764 319.3903 0003169 56.7214 30.5099 15.18665450506497 PLEIADES 1 1 38012U 11076F 21017.77072720 -.00000023 00000-0 48597-5 0 9996 2 38012 98.1802 95.1658 0001485 98.1280 262.0088 14.58565969483902 ZY 1 1 38038U 11079A 21017.84611374 .00000056 00000-0 35287-4 0 9995 2 38038 98.6613 77.7814 0007089 2.5022 357.6193 14.35293842475524 ZY 3 1 38046U 12001A 21017.77257889 .00000674 00000-0 33175-4 0 9999 2 38046 97.3983 94.5806 0003969 131.3481 341.9112 15.21295329501200 RISAT 1 1 38248U 12017A 21017.59674726 .00000345 00000-0 24940-4 0 9998 2 38248 97.5637 30.1925 0003095 212.9932 147.1105 15.10324762480955 KOMPSAT 3 1 38338U 12025B 21017.79137920 .00000037 00000-0 16737-4 0 9992 2 38338 98.1727 319.3532 0009562 185.0579 175.0540 14.61936225462647 KANOPUS-V 1 1 38707U 12039A 21017.74129103 .00000610 00000-0 31960-4 0 9998 2 38707 97.4642 300.0145 0001763 76.7337 7.0198 15.19497892471048 EXACTVIEW-1 1 38709U 12039C 21017.84158589 -.00000000 00000-0 20481-4 0 9991 2 38709 99.0831 64.4776 0011938 98.6380 261.6150 14.24037112441352 SPOT 6 1 38755U 12047A 21017.78582910 -.00000024 00000-0 47882-5 0 9994 2 38755 98.2225 87.3114 0001523 96.6089 263.5277 14.58544623444984 PLEIADES 1B 1 39019U 12068A 21017.80529256 -.00000024 00000-0 47218-5 0 9991 2 39019 98.1788 95.2239 0001319 91.6393 268.4951 14.58561956432767 GOKTURK 2 1 39030U 12073A 21017.79777303 .00000044 00000-0 14545-4 0 9993 2 39030 97.9244 266.5475 0001713 130.0017 230.1345 14.72788617433459 LANDSAT 8 1 39084U 13008A 21017.78505187 .00000055 00000-0 22201-4 0 9999 2 39084 98.2029 90.5604 0001092 93.5307 266.6016 14.57121631421903 SARAL 1 39086U 13009A 21017.82019345 -.00000022 00000-0 79049-5 0 9991 2 39086 98.5411 206.1293 0001190 44.4123 315.7156 14.32042273412685 GAOFEN 1 1 39150U 13018A 21017.80284582 .00000082 00000-0 18882-4 0 9990 2 39150 97.8494 94.9495 0019789 142.5512 217.7075 14.76560416416645 VNREDSAT 1 1 39160U 13021B 21017.80443496 .00000055 00000-0 19907-4 0 9995 2 39160 98.1295 97.4457 0001350 100.1305 260.0044 14.62944257411220 KOMPSAT 5 1 39227U 13042A 21017.76668981 .00000415 00000-0 33964-4 0 9994 2 39227 97.6201 205.0517 0001336 64.0349 114.7914 15.04515330406744 YAOGAN 18 1 39363U 13059A 21017.72162814 .00050929 30506-5 18718-3 0 9996 2 39363 97.2180 83.9014 0015370 108.2092 9.5127 15.88276357401557 SKYSAT 1 1 39418U 13066C 21017.48566312 .00000295 00000-0 29047-4 0 9999 2 39418 97.6050 98.1358 0021878 195.5062 164.5494 14.99066755391347 DUBAISAT 2 1 39419U 13066D 21017.81946361 .00000221 00000-0 25613-4 0 9997 2 39419 97.5137 69.0824 0013108 202.5882 157.4779 14.94230361390183 GPM 1 39574U 14009C 21017.79375588 .00002877 00000-0 45716-4 0 9996 2 39574 65.0053 142.5940 0010651 284.7649 75.2317 15.55745837391409 SENTINEL 1A 1 39634U 14016A 21017.79611780 -.00000009 00000-0 78834-5 0 9992 2 39634 98.1812 27.7141 0001333 83.1575 276.9772 14.59199665361822 KAZEOSAT 1 1 39731U 14024A 21017.78501520 -.00000002 00000-0 12247-4 0 9996 2 39731 98.2956 91.1618 0001039 86.8605 273.2695 14.42062079353770 ALOS 2 1 39766U 14029A 21017.83967474 .00000176 00000-0 30453-4 0 9999 2 39766 97.9215 117.3751 0001529 93.7208 266.4181 14.79472989359394 KAZEOSAT 2 1 40010U 14033A 21017.77191405 .00000048 00000-0 12572-4 0 9994 2 40010 97.7851 274.0385 0015251 329.0544 30.9769 14.82089253356060 HODOYOSHI 4 1 40011U 14033B 21017.81060924 .00000104 00000-0 19954-4 0 9995 2 40011 97.7500 265.2147 0026080 325.5264 34.4255 14.81263748355758 DEIMOS 2 1 40013U 14033D 21017.81369018 .00000148 00000-0 23659-4 0 9998 2 40013 97.8039 281.9637 0002121 51.3129 308.8276 14.84756680356679 HODOYOSHI 3 1 40015U 14033F 21017.57545953 .00000057 00000-0 14548-4 0 9993 2 40015 97.7079 250.3759 0036671 345.3936 14.6213 14.78638765355070 SPOT 7 1 40053U 14034A 21017.82010833 -.00000030 00000-0 32026-5 0 9992 2 40053 98.1578 87.2960 0001621 89.3778 270.7604 14.58570272348929 SKYSAT 2 1 40072U 14037D 21017.49358710 .00000092 00000-0 19255-4 0 9993 2 40072 98.4586 213.6436 0006739 159.7366 200.4114 14.81363632352854 WORLDVIEW 3 1 40115U 14048A 21017.81305115 .00000145 00000-0 23129-4 0 9994 2 40115 97.8598 94.9171 0001479 51.4155 308.7177 14.85185564348614 YAOGAN 21 1 40143U 14053A 21017.78353924 .00000764 00000-0 34901-4 0 9995 2 40143 97.4153 88.3670 0015038 233.7377 245.1914 15.23533803354038 YAOGAN 22 1 40275U 14063A 21017.75270643 -.00000027 00000-0 47166-4 0 9995 2 40275 100.5140 135.8537 0006044 340.5261 19.5622 13.15426130299942 ASNARO 1 40298U 14070A 21017.76560638 .00000994 00000-0 49924-4 0 9991 2 40298 97.4050 102.0314 0001291 93.6513 20.1079 15.19543232343881 HODOYOSHI 1 1 40299U 14070B 21017.74255966 .00000708 00000-0 31636-4 0 9999 2 40299 97.3043 95.3055 0013624 153.3346 322.5370 15.24422477344450 CHUBUSAT 1 1 40300U 14070C 21017.78383909 .00000696 00000-0 32503-4 0 9995 2 40300 97.2655 86.2689 0019403 173.8913 306.4445 15.22889182344127 QSAT-EOS 1 40301U 14070D 21017.76248034 .00001989 00000-0 75090-4 0 9997 2 40301 97.2726 93.1629 0025463 145.3427 330.9175 15.27895815344649 TSUBAME 1 40302U 14070E 21017.72367733 .00000808 00000-0 41763-4 0 9991 2 40302 97.2073 62.8969 0036564 224.4681 252.4933 15.18476376343095 YAOGAN 23 1 40305U 14071A 21017.77779088 .00000615 00000-0 33078-4 0 9996 2 40305 97.5482 322.4836 0002252 95.5780 320.9359 15.18575414342250 CBERS-4 1 40336U 14079A 21017.80418293 -.00000013 00000-0 10929-4 0 9993 2 40336 98.5406 93.5777 0001275 114.2896 245.8418 14.35423446320434 RESURS P2 1 40360U 14087A 21017.77709985 .00000785 00000-0 26201-4 0 9991 2 40360 97.2377 108.3683 0010496 130.7873 343.8118 15.33936131339163 YAOGAN 26 1 40362U 14088A 21017.78815876 .00000844 00000-0 38019-4 0 9998 2 40362 97.2228 84.1768 0011974 96.8951 22.0445 15.23614884337508 SMAP 1 40376U 15003A 21017.26777256 .00000032 00000-0 15238-4 0 9990 2 40376 98.1233 26.6477 0001870 85.8998 274.2481 14.63387004318492 KOMPSAT 3A 1 40536U 15014A 21017.79409714 .00000111 00000-0 10125-4 0 9997 2 40536 97.5655 320.9575 0003024 105.5717 278.1907 15.12250286321117 SENTINEL 2A 1 40697U 15028A 21017.80892233 .00000007 00000-0 19149-4 0 9993 2 40697 98.5663 94.9494 0001273 96.2928 263.8396 14.30817773291115 CARBONITE 1 1 40718U 15032D 21017.78098090 .00000159 00000-0 30966-4 0 9996 2 40718 97.8087 257.4872 0015398 239.1480 120.8215 14.74900196297401 YAOGAN 27 1 40878U 15040A 21017.69995021 -.00000021 00000-0 58662-4 0 9994 2 40878 100.2023 64.6967 0009152 92.7744 267.4418 13.15967836259192 LAPAN A2 1 40931U 15052B 21017.72582331 .00000805 00000-0 23058-4 0 9997 2 40931 6.0000 247.3536 0013214 67.8203 292.3364 14.76660049286987 YAOGAN 28 1 41026U 15064A 21017.72766984 .00000772 00000-0 35371-4 0 9998 2 41026 97.4807 154.5226 0003217 66.8925 44.3418 15.23455282289712 YAOGAN 29 1 41038U 15069A 21017.82620208 .00000036 00000-0 11655-4 0 9997 2 41038 98.0273 11.6515 0000603 61.2797 298.8475 14.80481867277991 KENT RIDGE 1 1 41167U 15077B 21017.36968750 .00000978 00000-0 19540-4 0 9991 2 41167 14.9789 7.1922 0011099 83.2828 145.0552 15.09263268281141 TELEOS 1 1 41169U 15077D 21017.53408821 .00001223 00000-0 32433-4 0 9990 2 41169 14.9803 347.0997 0010189 117.8896 242.2483 15.10829686281345 JASON 3 1 41240U 16002A 21017.51484922 -.00000024 00000-0 16206-3 0 9991 2 41240 66.0412 280.5274 0007385 272.0444 87.9725 12.80930982233903 SENTINEL 3A 1 41335U 16011A 21017.81637366 -.00000006 00000-0 15588-4 0 9994 2 41335 98.6300 87.4886 0000777 98.1879 261.9390 14.26734264256246 SENTINEL 1B 1 41456U 16025A 21017.76134833 -.00000013 00000-0 70530-5 0 9995 2 41456 98.1813 27.5055 0001310 83.0411 277.0931 14.59199554251984 ZY 3 2 1 41556U 16033A 21017.73988569 .00000670 00000-0 32924-4 0 9997 2 41556 97.3440 93.8979 0002899 38.9064 75.5875 15.21327088257494 NUSAT 1 1 41557U 16033B 21017.76787384 .00001452 00000-0 54458-4 0 9998 2 41557 97.3986 112.6348 0014495 54.0624 103.2444 15.28775995258501 NUSAT 2 1 41558U 16033C 21017.77796900 .00001635 00000-0 57345-4 0 9995 2 41558 97.4063 115.7949 0013366 49.9743 107.7325 15.30841322258666 CARTOSAT 2C 1 41599U 16040A 21017.76694078 .00000498 00000-0 26795-4 0 9991 2 41599 97.4221 79.9655 0013912 176.7317 302.3396 15.19246479253637 SKYSAT C1 1 41601U 16040C 21017.44754663 .00001487 00000-0 41167-4 0 9996 2 41601 97.2070 97.6629 0005042 102.9616 257.2193 15.38557264254606 LAPAN A3 1 41603U 16040E 21017.77089853 .00000164 00000-0 10682-4 0 9995 2 41603 97.2799 70.2279 0013707 164.5695 289.2428 15.19945845253691 BIROS 1 41604U 16040F 21017.23077296 .00000537 00000-0 26179-4 0 9997 2 41604 97.2863 74.5345 0013107 146.9526 213.2532 15.22326048253893 3CAT-2 1 41732U 16051B 21017.76138145 .00001513 00000-0 57528-4 0 9997 2 41732 97.3780 299.4008 0012236 328.7209 83.6954 15.28297085246486 SKYSAT C4 1 41771U 16058B 21017.46771522 .00001417 00000-0 39497-4 0 9994 2 41771 97.1863 89.5429 0001311 97.4934 262.6460 15.38420331241569 SKYSAT C5 1 41772U 16058C 21017.79119250 .00000615 00000-0 28037-4 0 9992 2 41772 97.3335 89.1812 0001574 97.7065 21.0390 15.24271874241185 SKYSAT C2 1 41773U 16058D 21017.70221040 .00001362 00000-0 38008-4 0 9994 2 41773 97.1869 90.1050 0001471 79.2020 280.9391 15.38433695241626 SKYSAT C3 1 41774U 16058E 21017.71541362 .00001384 00000-0 38627-4 0 9999 2 41774 97.1864 90.0768 0001468 83.1685 276.9728 15.38413016241617 ALSAT 1B 1 41785U 16059C 21017.77153393 .00000022 00000-0 13271-4 0 9997 2 41785 97.9841 73.2968 0031296 0.2534 359.8670 14.63384277230249 PATHFINDER 1 1 41787U 16059E 21017.69348572 .00000062 00000-0 20758-4 0 9997 2 41787 97.9879 74.5071 0030597 357.8979 2.2089 14.63778908230283 WORLDVIEW 4 1 41848U 16067A 21017.50397695 .00024451 00000-0 21431-3 0 9990 2 41848 97.7972 148.8902 0006654 110.3669 249.8306 15.68845326229875 GOKTURK-1A 1 41875U 16073A 21017.78339039 .00000086 00000-0 25945-4 0 9998 2 41875 98.1324 275.0623 0001432 86.2353 273.9015 14.62770259219895 RESOURCESAT 2A 1 41877U 16074A 21017.83079794 -.00000183 00000-0 -63107-4 0 9998 2 41877 98.7744 92.8219 0001318 89.6489 270.4836 14.21598636213502 CARTOSAT 2D 1 41948U 17008A 21017.44948284 .00000472 00000-0 25627-4 0 9995 2 41948 97.4645 79.7881 0006859 339.5891 20.5055 15.19229366217459 SENTINEL 2B 1 42063U 17013A 21017.84387172 .00000016 00000-0 22741-4 0 9995 2 42063 98.5681 94.9842 0000989 84.8986 275.2307 14.30817095202030 ZHUHAI-1 02 1 42759U 17034B 21017.75739348 .00000334 00000-0 33550-4 0 9999 2 42759 43.0182 289.4503 0011079 299.6657 168.1696 15.10044960198364 NUSAT-3 1 42760U 17034C 21017.78502785 .00000444 00000-0 39661-4 0 9998 2 42760 43.0169 286.9776 0010181 314.6561 145.3367 15.10580609198402 ZHUHAI-1 01 1 42761U 17034D 21017.81444831 .00000331 00000-0 33336-4 0 9998 2 42761 43.0188 288.2958 0011532 300.4018 122.4178 15.10125601198371 CARTOSAT 2E 1 42767U 17036C 21017.59278516 .00000468 00000-0 25361-4 0 9996 2 42767 97.3951 78.2197 0010054 20.4779 339.6857 15.19265758198047